CW1459 Weather Reports


Display with metric or nautical units.
time (UTC)temp
F
wind
direction
speed
MPH
gust
MPH
rain 1hr
in
rain 24hr
in
rain mn
in
humidity
%
barometer
mb
20260508005337 60 348 2.0 5.0 0.00 0.00 0.00 42 1008.1
20260508004322 61 351 2.0 6.0 0.00 0.00 0.00 42 1008.1
20260508003328 61 309 3.0 6.0 0.00 0.00 0.00 42 1007.9
20260508002315 61 296 4.0 7.0 0.00 0.00 0.00 41 1007.7
20260508001318 61 300 5.0 8.0 0.00 0.00 0.00 40 1007.6
20260508000339 62 328 5.0 10.0 0.00 0.00 0.00 40 1007.4
20260507235322 63 306 5.0 10.0 0.00 0.01 0.00 39 1007.4
20260507234316 63 330 5.0 9.0 0.00 0.01 0.00 39 1007.3
20260507233332 63 297 5.0 11.0 0.00 0.01 0.00 39 1007.2
20260507232328 63 317 3.0 9.0 0.00 0.01 0.00 41 1007.0
20260507231315 64 320 4.0 9.0 0.00 0.01 0.00 40 1006.9
20260507230333 63 323 6.0 11.0 0.00 0.01 0.00 40 1006.7
20260507225316 63 111 1.0 2.0 0.00 0.01 0.00 51 1006.6
20260507224332 63 111 0.0 2.0 0.00 0.01 0.00 52 1006.4
20260507223332 64 107 0.0 2.0 0.00 0.01 0.00 49 1006.3
20260507222318 64 100 2.0 2.0 0.00 0.01 0.00 45 1006.2
20260507221318 64 63 1.0 2.0 0.00 0.01 0.00 39 1006.2
20260507220333 65 5 0.0 4.0 0.00 0.01 0.00 39 1006.1
20260507215317 67 350 2.0 5.0 0.00 0.02 0.00 35 1006.1
20260507214337 69 30 3.0 8.0 0.00 0.02 0.00 34 1006.1
20260507213333 68 319 3.0 6.0 0.00 0.02 0.00 35 1006.0
20260507212316 67 306 3.0 12.0 0.00 0.02 0.00 34 1006.1
20260507211339 68 317 4.0 9.0 0.00 0.02 0.00 40 1006.2
20260507210316 68 342 4.0 8.0 0.00 0.02 0.00 37 1006.1
20260507205315 68 252 2.0 6.0 0.00 0.02 0.00 39 1006.2
20260507204335 67 321 6.0 12.0 0.00 0.02 0.00 36 1006.3
20260507203359 68 360 4.0 9.0 0.00 0.02 0.00 40 1006.5
20260507202317 68 67 2.0 12.0 0.00 0.02 0.00 42 1006.5
20260507201338 67 360 2.0 14.0 0.00 0.02 0.00 41 1006.5
20260507200339 67 351 2.0 9.0 0.00 0.02 0.00 41 1006.6
20260507195339 68 34 3.0 9.0 0.00 0.02 0.00 41 1006.8
20260507194331 67 199 1.0 8.0 0.00 0.02 0.00 41 1006.9
20260507193335 68 360 6.0 10.0 0.00 0.02 0.00 43 1007.1
20260507192336 68 333 2.0 4.0 0.00 0.02 0.00 38 1007.3
20260507191318 66 159 3.0 10.0 0.00 0.02 0.00 39 1007.4
20260507190322 67 338 4.0 9.0 0.00 0.02 0.00 41 1007.5
20260507185315 66 300 5.0 11.0 0.00 0.02 0.00 40 1007.7
20260507184318 66 325 6.0 11.0 0.00 0.02 0.00 41 1007.7
20260507183318 64 215 3.0 9.0 0.00 0.02 0.00 44 1007.9
20260507182317 64 284 3.0 8.0 0.00 0.02 0.00 46 1008.0
20260507181318 64 349 4.0 15.0 0.00 0.02 0.00 41 1008.1
20260507180319 64 320 5.0 14.0 0.00 0.02 0.00 40 1008.3
20260507175331 64 348 5.0 12.0 0.00 0.02 0.00 42 1008.4
20260507174338 64 304 4.0 11.0 0.00 0.02 0.00 43 1008.6
20260507173335 64 44 5.0 14.0 0.00 0.02 0.00 40 1008.8
20260507172337 64 315 4.0 14.0 0.00 0.02 0.00 44 1008.9
20260507171338 64 16 6.0 11.0 0.00 0.02 0.00 44 1009.0
20260507170338 63 331 3.0 9.0 0.00 0.02 0.00 47 1009.2
20260507165353 63 5 5.0 12.0 0.00 0.02 0.00 42 1009.4
20260507164337 62 351 6.0 13.0 0.00 0.02 0.00 44 1009.5
20260507163317 62 330 3.0 9.0 0.00 0.02 0.00 45 1009.6
20260507162322 61 13 2.0 10.0 0.00 0.02 0.00 48 1009.7
20260507161336 62 309 8.0 12.0 0.00 0.02 0.00 46 1009.9
20260507160331 62 340 5.0 11.0 0.00 0.02 0.00 45 1010.0
20260507155330 61 345 7.0 14.0 0.00 0.02 0.00 44 1010.1
20260507154313 60 35 4.0 10.0 0.00 0.02 0.00 45 1010.2
20260507153335 59 317 4.0 12.0 0.00 0.02 0.00 42 1010.2
20260507152315 60 5 2.0 10.0 0.00 0.02 0.00 42 1010.3
20260507151336 59 265 4.0 9.0 0.00 0.02 0.00 42 1010.5
20260507150334 60 9 4.0 12.0 0.00 0.02 0.00 42 1010.7
20260507145328 59 330 6.0 13.0 0.00 0.05 0.00 44 1010.9
20260507144331 57 342 5.0 11.0 0.00 0.05 0.00 47 1011.0
20260507143325 57 42 5.0 12.0 0.00 0.05 0.00 47 1011.0
20260507142314 57 328 5.0 11.0 0.00 0.05 0.00 48 1011.1
20260507141337 58 350 8.0 13.0 0.00 0.05 0.00 44 1011.1
20260507140351 57 21 6.0 11.0 0.00 0.05 0.00 48 1011.3
20260507135313 57 338 5.0 10.0 0.00 0.10 0.00 51 1011.5
20260507134331 57 325 6.0 12.0 0.00 0.10 0.00 48 1011.7
20260507133358 57 328 7.0 12.0 0.00 0.10 0.00 55 1011.6
20260507132317 56 342 5.0 11.0 0.00 0.10 0.00 56 1011.7
20260507131335 54 329 6.0 10.0 0.00 0.10 0.00 59 1011.7
20260507130337 54 341 6.0 11.0 0.00 0.10 0.00 56 1011.8
20260507125320 54 280 2.0 9.0 0.00 0.14 0.00 59 1011.9
20260507124312 54 344 4.0 8.0 0.00 0.14 0.00 59 1011.8
20260507123337 54 329 4.0 6.0 0.00 0.14 0.00 58 1011.7
20260507122318 53 5 3.0 9.0 0.00 0.14 0.00 61 1011.6
20260507121331 53 302 4.0 8.0 0.00 0.14 0.00 61 1011.5
20260507120312 52 309 4.0 8.0 0.00 0.14 0.00 63 1011.4
20260507115337 52 13 2.0 4.0 0.00 0.18 0.00 64 1011.5
20260507114314 52 336 3.0 5.0 0.00 0.18 0.00 64 1011.5
20260507113352 51 317 3.0 5.0 0.00 0.18 0.00 63 1011.4
20260507112334 51 318 2.0 5.0 0.00 0.18 0.00 65 1011.4
20260507111314 51 319 1.0 4.0 0.00 0.18 0.00 66 1011.4
20260507110313 51 345 4.0 9.0 0.00 0.18 0.00 67 1011.2
20260507105317 51 5 2.0 5.0 0.00 0.18 0.00 69 1011.1
20260507104337 51 5 1.0 2.0 0.00 0.18 0.00 69 1011.0
20260507103313 51 5 1.0 3.0 0.00 0.18 0.00 69 1010.7
20260507102315 51 330 1.0 3.0 0.00 0.18 0.00 69 1010.8
20260507101335 51 348 1.0 4.0 0.00 0.18 0.00 66 1010.6
20260507100312 51 360 3.0 5.0 0.00 0.18 0.00 65 1010.6
20260507095321 51 23 2.0 8.0 0.00 0.18 0.00 65 1010.3
20260507094331 51 28 4.0 8.0 0.00 0.18 0.00 65 1010.2
20260507093334 52 329 3.0 5.0 0.00 0.18 0.00 67 1010.3
20260507092330 52 325 2.0 5.0 0.00 0.18 0.00 68 1010.5
20260507091323 52 5 1.0 3.0 0.00 0.18 0.00 69 1010.4
20260507090329 52 9 1.0 3.0 0.00 0.18 0.00 68 1010.4
20260507085334 52 25 1.0 4.0 0.00 0.18 0.00 69 1010.3
20260507084315 52 342 4.0 8.0 0.00 0.18 0.00 69 1010.3
20260507083340 52 5 2.0 4.0 0.00 0.18 0.00 70 1010.2
20260507082330 52 11 2.0 6.0 0.00 0.18 0.00 71 1010.2
20260507081332 52 342 4.0 6.0 0.00 0.18 0.00 71 1010.0
20260507080335 52 335 6.0 10.0 0.00 0.18 0.00 73 1009.8
20260507075337 53 350 3.0 5.0 0.00 0.18 0.00 76 1009.6
20260507074338 53 336 2.0 5.0 0.00 0.18 0.00 78 1009.5
20260507073359 53 15 3.0 6.0 0.00 0.18 0.00 78 1009.5
20260507072351 53 341 4.0 8.0 0.00 0.18 0.00 79 1009.5
20260507071336 53 338 4.0 9.0 0.00 0.18 0.00 80 1009.8
20260507070337 54 351 2.0 3.0 0.00 0.18 0.00 81 1010.1
20260507065315 54 5 1.0 2.0 0.00 0.18 0.00 81 1010.1
20260507064322 54 349 2.0 4.0 0.00 0.18 0.00 81 1010.0
20260507063323 54 348 2.0 4.0 0.00 0.18 0.00 81 1010.0
20260507062329 54 331 1.0 2.0 0.00 0.18 0.00 82 1010.1
20260507061400 54 336 1.0 4.0 0.00 0.18 0.00 82 1010.1
20260507060341 54 333 2.0 4.0 0.00 0.18 0.00 81 1010.1
20260507055320 54 5 1.0 2.0 0.00 0.18 0.00 81 1010.1
20260507054340 54 25 1.0 6.0 0.00 0.18 0.00 80 1009.9
20260507053316 55 338 2.0 3.0 0.00 0.18 0.00 80 1009.9
20260507052315 55 334 2.0 4.0 0.00 0.18 0.00 80 1009.9
20260507051338 55 18 2.0 5.0 0.00 0.18 0.00 79 1009.9
20260507050401 55 317 3.0 6.0 0.00 0.18 0.00 79 1009.9
20260507045400 55 346 4.0 8.0 0.00 0.18 0.00 79 1009.8
20260507044318 55 5 4.0 10.0 0.00 0.18 0.00 80 1009.7
20260507043353 55 351 4.0 9.0 0.00 0.18 0.00 80 1009.6
20260507042337 55 343 2.0 4.0 0.00 0.18 0.00 81 1009.7
20260507041318 55 341 3.0 6.0 0.00 0.18 0.00 82 1010.1
20260507040324 55 345 3.0 9.0 0.00 0.18 0.00 82 1010.1
20260507035320 55 338 4.0 8.0 0.00 0.18 0.18 82 1010.0
20260507034339 56 343 2.0 8.0 0.00 0.18 0.18 83 1009.5
20260507033328 56 320 5.0 12.0 0.00 0.18 0.18 82 1009.7
20260507032334 56 315 6.0 11.0 0.00 0.18 0.18 83 1009.6
20260507031315 56 343 4.0 8.0 0.00 0.18 0.18 83 1009.7
20260507030336 56 325 6.0 12.0 0.00 0.18 0.18 83 1009.7
20260507025338 56 325 6.0 10.0 0.00 0.18 0.18 82 1009.7
20260507024352 57 339 6.0 10.0 0.00 0.18 0.18 82 1009.3
20260507023341 57 5 10.0 18.0 0.00 0.18 0.18 82 1009.4
20260507022335 57 333 7.0 12.0 0.00 0.18 0.18 83 1009.2
20260507021316 57 351 5.0 11.0 0.00 0.18 0.18 83 1009.1
20260507020316 57 348 4.0 9.0 0.00 0.18 0.18 83 1009.2
20260507015318 58 98 4.0 8.0 0.00 0.18 0.18 83 1009.3
20260507014320 58 43 1.0 8.0 0.00 0.18 0.18 83 1009.1
20260507013317 59 11 4.0 8.0 0.00 0.18 0.18 83 1008.8
20260507012319 59 333 5.0 8.0 0.00 0.18 0.18 83 1008.9
20260507011340 59 360 5.0 12.0 0.00 0.18 0.18 83 1008.8
20260507010340 59 346 5.0 8.0 0.00 0.18 0.18 83 1008.9